[[{"header":{"parameterUnit":"m.s-1","parameterCategory":1,"la1":30.2992,"la2":30.254,"lo1":-89.0895,"lo2":-89.0443,"dy":0.0025,"dx":0.0025,"nx":19,"ny":19,"refTime":"2026-03-27T03:00:00:Z","depth":0,"parameterNumber":2,"parameterNumberName":"U-component_of_WINDS"},"data":[0,0,0,-0.1887,-0.189,-0.2043,-0.2044,-0.2217,-0.2219,0,0,0,0,0,0,0,0,0,0,0,-0.183,-0.1831,-0.1887,-0.189,-0.2043,-0.2044,-0.2217,-0.2219,0,0,0,0,0,0,0,0,0,0,0,-0.183,-0.1831,-0.1832,-0.1891,-0.2043,-0.2044,-0.2217,-0.2109,0,0,0,0,0,0,0,0,0,0,-0.1964,-0.1901,-0.183,-0.1832,-0.1892,-0.2043,-0.2044,-0.2104,-0.2116,-0.2139,0,-0.2159,0,-0.2191,-0.2229,-0.223,0,0,0,-0.1898,-0.1891,-0.1943,-0.1832,-0.1893,-0.2042,-0.1976,-0.2111,-0.2124,-0.2154,-0.2161,-0.2168,-0.2194,-0.223,-0.2231,-0.2344,-0.2344,0,0,-0.189,-0.1851,-0.1933,-0.195,-0.1927,-0.1971,-0.1981,-0.2119,-0.2123,-0.2162,-0.2173,-0.2197,-0.2231,-0.2232,-0.2344,-0.2344,0,0,0,-0.186,-0.1845,-0.1894,-0.1943,-0.1972,-0.1976,-0.1987,-0.2117,-0.2136,-0.2175,-0.2199,-0.2232,-0.2234,-0.2344,-0.2344,-0.2313,0,0,0,-0.1855,-0.1827,-0.1889,-0.1867,-0.1969,-0.2047,-0.1981,-0.2127,-0.2144,-0.2198,-0.2232,-0.2235,-0.2343,-0.2344,-0.2314,-0.2305,0,0,0,-0.1824,-0.1824,-0.1842,-0.1865,-0.1929,-0.2046,-0.2073,-0.2131,-0.2158,-0.223,-0.2236,-0.2343,-0.2344,-0.2314,-0.2306,-0.2323,0,0,0,-0.1779,-0.1812,-0.1841,-0.1888,-0.1928,-0.2026,-0.2073,-0.2148,-0.2205,-0.2233,-0.2344,-0.2344,-0.2315,-0.2307,-0.2324,-0.2331,-0.233,0,0,-0.1799,-0.1813,-0.1844,-0.1874,-0.1958,-0.2006,-0.2085,-0.2174,-0.2215,-0.2298,-0.2301,-0.2314,-0.2306,-0.2323,-0.2341,-0.234,0,0,0,-0.1837,-0.1859,-0.1889,-0.1943,-0.2013,-0.2072,-0.2153,-0.2186,-0.2259,-0.2251,-0.2326,-0.2323,-0.2334,-0.2339,-0.2339,-0.2351,-0.2344,-0.2344,-0.2344,-0.181,-0.1863,-0.1917,-0.1987,-0.2039,-0.2123,-0.2169,-0.2227,-0.2265,-0.2281,-0.2306,-0.2311,-0.2315,-0.2315,-0.2327,-0.2315,-0.2314,-0.2314,-0.2314,-0.1844,-0.1883,-0.1933,-0.2003,-0.2057,-0.2117,-0.2198,-0.2222,-0.2284,-0.2296,-0.2309,-0.2317,-0.2313,-0.2326,-0.2313,-0.2313,-0.2313,-0.2313,-0.2313,-0.1832,-0.186,-0.19,-0.1984,-0.2041,-0.2112,-0.2169,-0.2217,-0.2262,-0.2275,-0.2306,-0.2306,-0.2313,-0.2286,-0.2286,-0.2286,-0.2286,-0.2286,-0.2286,-0.1803,-0.185,-0.1893,-0.197,-0.2011,-0.207,-0.2155,-0.2196,-0.2253,-0.2283,-0.2283,-0.2318,-0.2303,-0.2298,-0.2287,-0.2287,-0.2287,-0.2286,-0.2286,-0.1818,-0.1823,-0.1889,-0.193,-0.2024,-0.2078,-0.2139,-0.2218,-0.2258,-0.2285,-0.2317,-0.2298,-0.2316,-0.2317,-0.2313,-0.2306,-0.2306,-0.2306,-0.2306,-0.1807,-0.1821,-0.1901,-0.1963,-0.2029,-0.209,-0.2163,-0.2228,-0.2296,-0.2324,-0.2332,-0.2331,-0.2329,-0.2348,-0.2348,-0.2345,-0.2347,-0.2347,-0.2347,-0.1819,-0.1842,-0.1895,-0.1963,-0.204,-0.2104,-0.2174,-0.2242,-0.232,-0.235,-0.2347,-0.2345,-0.2344,-0.2341,-0.237,-0.237,-0.2365,0,0]},{"header":{"parameterUnit":"m.s-1","parameterCategory":1,"la1":30.2992,"la2":30.254,"lo1":-89.0895,"lo2":-89.0443,"dy":0.0025,"dx":0.0025,"nx":19,"ny":19,"refTime":"2026-03-27T03:00:00:Z","depth":0,"parameterNumber":3,"parameterNumberName":"V-component_of_WINDS"},"data":[0,0,0,0.5226,0.5225,0.5156,0.5155,0.5088,0.5088,0,0,0,0,0,0,0,0,0,0,0,0.5258,0.5258,0.5226,0.5225,0.5156,0.5155,0.5088,0.5088,0,0,0,0,0,0,0,0,0,0,0,0.5258,0.5258,0.5258,0.5225,0.5156,0.5155,0.5088,0.5133,0,0,0,0,0,0,0,0,0,0,0.5197,0.5237,0.5258,0.5258,0.5224,0.5156,0.5155,0.5135,0.5131,0.5128,0,0.5128,0,0.5107,0.5085,0.5084,0,0,0,0.5216,0.5241,0.5212,0.5258,0.5224,0.5156,0.5185,0.5132,0.5127,0.5122,0.5127,0.5124,0.5106,0.5084,0.5084,0.5097,0.5098,0,0,0.522,0.5252,0.5216,0.5209,0.522,0.5187,0.5183,0.5129,0.5137,0.5127,0.5122,0.5105,0.5084,0.5084,0.5097,0.5097,0,0,0,0.5237,0.5255,0.5227,0.5213,0.5199,0.5185,0.518,0.5139,0.5127,0.5121,0.5104,0.5084,0.5083,0.5096,0.5097,0.5151,0,0,0,0.5239,0.5265,0.5229,0.5248,0.52,0.5168,0.5192,0.5131,0.5124,0.5104,0.5084,0.5083,0.5096,0.5097,0.5148,0.5171,0,0,0,0.5259,0.5267,0.5261,0.525,0.5221,0.5168,0.5152,0.5128,0.5114,0.5084,0.5083,0.5095,0.5096,0.5146,0.5167,0.5185,0,0,0,0.5289,0.5309,0.5262,0.5278,0.5222,0.5201,0.5152,0.5135,0.5117,0.5083,0.5096,0.5097,0.5145,0.5165,0.5183,0.5206,0.5219,0,0,0.5332,0.5315,0.5322,0.5278,0.5274,0.5209,0.5213,0.5166,0.5134,0.5112,0.5112,0.5149,0.5167,0.5184,0.5276,0.5286,0,0,0,0.5346,0.5352,0.5344,0.5327,0.5291,0.5263,0.5212,0.5195,0.5174,0.5129,0.5158,0.5168,0.5177,0.5187,0.5196,0.5202,0.5102,0.5102,0.5102,0.5453,0.5411,0.542,0.5371,0.5356,0.5303,0.5288,0.5256,0.5218,0.5226,0.5219,0.528,0.5292,0.5299,0.5306,0.5227,0.5228,0.5228,0.5228,0.5512,0.5514,0.5464,0.5455,0.5412,0.5404,0.5355,0.5329,0.5316,0.5281,0.5287,0.5253,0.5311,0.5315,0.5231,0.5231,0.523,0.523,0.523,0.5578,0.5571,0.555,0.5523,0.5507,0.5457,0.5448,0.5408,0.5371,0.5377,0.5367,0.5366,0.5361,0.5374,0.5375,0.5375,0.5375,0.5375,0.5375,0.5655,0.5629,0.5625,0.559,0.5576,0.5551,0.55,0.5485,0.5458,0.543,0.543,0.5393,0.5324,0.5308,0.5378,0.5378,0.5377,0.5377,0.5377,0.5732,0.5709,0.5703,0.5689,0.5645,0.5634,0.5583,0.5556,0.5537,0.5535,0.5496,0.5451,0.5432,0.5425,0.5412,0.5504,0.5504,0.5504,0.5504,0.5788,0.5774,0.5761,0.5741,0.5716,0.5671,0.5668,0.5629,0.5586,0.5572,0.5553,0.5532,0.5526,0.551,0.5501,0.5488,0.5598,0.5598,0.5598,0.5834,0.5817,0.5821,0.5778,0.5742,0.5712,0.5709,0.5688,0.5634,0.5601,0.5561,0.5557,0.5523,0.5513,0.548,0.5467,0.5443,0,0]}]]